User: anonymous   Login
Location: ??????
(30.5519°N, 47.7720°E)
Time: 20:45:09
(UTC+00:00)
Language:

Cosmos 1833 Rocket - Orbit

View from above orbital plane
View from above orbital plane
View from above satellite
View from above satellite

Ground track
Ground track

The orbit data is extracted from the following two-line orbital elements,

1 17590U 87027B   21103.32847985 -.00000113  00000-0 -32463-4 0  9998
2 17590  71.0015  89.8845 0006492 314.6225  45.4368 14.16797962761864
Epoch (UTC): 13 April 2021 07:53:00
Eccentricity: 0.0006492
inclination: 71.0015°
perigee height: 831 km
apogee height: 841 km
right ascension of ascending node: 89.8845°
argument of perigee: 314.6225°
revolutions per day: 14.16797962
mean anomaly at epoch: 45.4368°
orbit number at epoch: 76186

The dashed part of the orbit path shows where the satellite is in the earth's shadow,  

DLR